Location: Alpine
(43.1636°N, 111.0180°W)
Time: 04:38:22
(UTC+00:00)

Tiros 1 despin weight - Pass Details

Date: 28 May 2022
Orbit: 591 x 639 km, 48.2° (Epoch: 30 June)

Event Time Altitude Azimuth Distance (km) Brightness Sun altitude
Rises 03:33:39 0° 280° (W) 2,862 ? -6.9°
Reaches altitude 10° 03:36:04 10° 287° (WNW) 1,950 ? -7.3°
Maximum altitude 03:40:20 43° 359° (N) 851 ? -7.9°
Drops below altitude 10° 03:44:33 10° 72° (ENE) 1,928 ? -8.5°
Sets 03:46:55 0° 79° (E) 2,825 ? -8.8°
